RH
88 84 71 65 71 72 75 78 76 76 70 71 65 58 50 41 32 22 40 38 42 44 42 49 47 52 48 48 52 52 52 49 48 43 43 48 57 61 64 67 69 68 65
80 79 81 74 68 74 80 80 70 76 73 60 51 40 27 25 25 32 31 36 36 39 43 49 46 47 46 49 50 50 52 53 57 57 57 59 63 68 73 74 67 62 60
86 83 82 79 77 80 76 76 75 66 54 45 30 22 22 20 22 30 38 40 43 44 45 44 45 46 43 48 54 56 59 62 63 64 63 67 74 68 66 63 58 57 56
84 77 79 78 79 74 74 67 59 50 34 24 22 21 20 23 33 32 45 44 44 46 46 49 51 55 57 57 60 58 62 66 68 72 75 69 59 57 55 54 59 60 62
84 82 80 77 76 72 62 53 42 28 25 21 20 22 28 46 50 52 47 46 42 44 49 54 58 53 55 71 72 70 71 71 67 66 64 60 57 54 58 62 74 72 69
87 84 78 72 67 57 50 37 28 24 22 22 23 24 42 48 33 26 36 44 48 51 52 55 63 68 71 80 83 89 88 76 66 66 65 59 58 61 64 70 75 85 84
84 76 68 62 56 46 36 29 26 26 25 26 26 24 39 48 30 28 27 47 52 59 66 67 69 66 78 75 76 69 66 72 79 78 68 61 60 62 75 88 86 77 74
81 68 61 51 41 34 37 35 35 31 31 32 24 31 31 28 29 32 33 62 59 63 71 74 72 72 71 81 71 66 68 66 62 63 64 67 69 72 72 73 77 78 74
70 62 52 40 34 30 32 39 30 30 30 31 29 29 38 40 34 39 53 67 68 67 72 77 76 71 73 81 76 74 70 62 59 64 76 83 78 79 82 83 81 85 76
62 54 43 32 28 31 32 28 32 31 25 24 27 33 30 41 40 44 57 69 68 67 70 67 68 73 80 86 83 78 71 65 68 72 71 67 70 70 72 74 85 95 87
51 41 33 29 26 27 30 26 29 27 29 38 39 34 43 43 58 48 72 74 73 72 66 63 62 73 89 89 82 72 71 79 75 72 70 71 70 66 71 82 90 97 97
38 30 30 30 26 25 24 28 30 32 36 37 39 44 52 55 49 63 62 88 86 74 68 65 71 87 87 83 81 82 86 84 72 73 76 73 73 81 82 84 86 90 91
36 36 35 28 26 28 33 35 36 36 38 39 43 46 50 63 68 59 71 88 86 80 76 79 88 88 83 81 82 86 79 71 72 77 80 83 82 84 87 90 90 90 88
35 35 33 31 33 33 32 35 37 40 41 44 50 53 57 65 72 83 82 76 74 74 78 78 82 82 79 75 71 70 71 76 85 89 88 86 86 84 85 86 91 89 90
34 35 36 39 34 37 39 39 40 34 40 51 62 65 66 65 75 92 90 81 78 80 86 77 74 70 70 69 70 73 76 81 85 86 91 89 89 88 90 88 92 93 92
34 37 38 37 38 38 39 40 36 35 36 36 41 55 74 79 72 89 90 87 84 90 80 75 72 72 72 73 78 79 84 83 87 90 92 93 94 95 94 92 93 92 90
35 37 40 38 40 40 41 42 42 33 32 39 44 47 53 60 85 94 88 86 89 86 74 69 72 74 78 82 83 88 88 90 92 94 95 95 97 95 94 92 91 92 90
30 26 32 33 38 40 38 36 42 50 52 55 42 47 56 67 88 95 90 86 74 74 71 71 74 80 85 90 89 91 91 96 98 95 96 98 96 96 95 94 93 93 94
28 32 30 30 33 33 32 38 40 44 54 68 71 68 72 82 96 97 93 84 79 76 71 73 80 89 93 94 95 95 94 99 96 98 100 97 96 97 95 95 93 88 84
26 21 24 32 36 35 40 41 42 46 60 68 74 71 78 82 81 78 82 82 77 75 77 83 87 89 93 94 95 92 95 99 99 98 99 98 98 98 97 95 92 94 91
25 26 30 35 34 41 40 41 45 53 69 72 71 77 91 89 84 84 86 83 81 81 86 87 91 93 94 96 98 95 96 100 100 100 100 100 98 96 99 94 95 93 92
25 36 35 32 37 40 40 42 48 64 74 74 72 79 93 89 86 84 84 82 83 85 89 93 94 99 95 99 99 98 99 100 100 100 100 100 99 96 96 98 96 96 93
24 31 34 36 41 40 41 49 66 72 74 76 78 81 85 88 85 86 88 86 90 97 98 97 99 96 96 96 96 97 100 100 100 100 99 100 100 99 97 97 96 96 94
25 30 34 39 40 41 47 62 63 60 68 78 77 80 82 86 88 90 90 96 100 100 98 98 98 100 99 96 99 100 100 100 100 98 96 99 100 99 100 99 100 100 100
29 33 36 39 41 48 54 53 59 72 76 80 82 86 88 90 94 94 99 100 98 100 100 100 100 97 94 94 95 95 96 95 100 98 98 97 94 96 100 100 100 99 100
29 33 37 41 44 46 47 51 56 65 69 74 78 94 96 96 100 100 100 100 100 100 95 93 91 91 94 93 91 93 92 100 100 100 100 96 97 99 98 99 98 100 99
Wind_Speed
28 19 26 28 20 20 18 18 19 17 17 17 15 15 13 12 9 10 6 6 4 3 4 4 4 4 5 5 6 7 9 11 16 21 21 21 22 24 24 25 25 25 24
33 22 22 28 28 23 18 20 19 17 15 16 17 15 14 12 10 7 5 5 5 4 4 4 5 6 7 7 9 11 13 14 17 22 21 22 22 23 24 24 24 24 25
25 22 22 24 27 24 24 22 22 19 18 17 16 16 14 11 8 6 5 5 4 4 4 5 7 8 9 10 11 13 14 15 17 20 23 22 24 23 23 23 23 24 26
22 24 24 24 23 25 21 22 21 20 20 17 16 14 12 10 7 6 5 4 4 4 6 7 7 8 10 12 12 14 14 16 17 19 20 23 23 24 23 24 25 25 27
21 23 22 23 24 27 22 22 22 20 18 17 15 13 11 8 6 4 4 4 4 6 7 7 7 11 11 10 11 12 13 15 16 18 20 23 23 23 23 25 26 27 28
22 23 25 25 24 22 24 23 22 21 18 16 13 12 9 8 5 5 5 5 6 6 7 8 9 10 11 11 11 12 14 17 19 21 23 23 25 25 26 25 27 23 14
25 22 24 26 27 24 22 22 22 19 17 13 12 11 9 6 4 5 7 5 5 7 8 10 11 11 12 12 13 15 15 16 17 20 23 23 27 28 29 28 25 26 27
23 24 27 31 31 25 19 19 17 17 14 12 11 9 7 5 4 5 7 5 6 8 9 9 10 11 12 13 17 17 17 18 19 21 22 24 25 29 29 29 28 27 27
28 28 26 29 29 28 20 16 16 15 13 11 10 8 5 3 3 5 6 6 8 10 10 10 10 12 13 16 17 19 21 22 21 19 22 23 27 26 24 23 21 20 21
26 30 30 27 27 23 20 18 15 13 13 10 8 6 3 1 4 6 7 7 9 11 11 11 10 13 16 17 19 21 23 23 23 24 23 22 21 20 20 18 19 18 20
31 30 27 23 23 21 19 17 15 13 11 8 5 3 1 2 4 7 7 6 8 12 12 13 14 16 18 20 20 21 21 23 24 20 20 20 19 20 20 20 21 21 21
30 29 25 22 22 19 18 15 12 10 8 6 4 3 1 3 6 6 7 7 9 11 14 15 16 18 20 21 20 16 19 19 15 17 19 20 21 20 22 23 24 22 21
24 22 20 20 18 16 14 13 10 7 5 4 1 1 3 4 5 8 8 9 10 12 14 17 18 18 18 14 12 14 15 15 18 19 20 20 21 23 25 24 23 22 23
22 19 19 18 15 13 12 9 8 6 4 2 2 3 5 6 5 6 8 10 11 13 15 17 17 15 12 12 13 15 15 16 19 19 20 22 22 22 21 22 22 21 21
20 18 16 15 14 13 10 8 7 5 3 0 3 5 7 7 6 9 10 12 14 14 18 16 13 11 12 14 16 16 16 18 19 18 20 21 20 20 21 20 21 20 19
20 17 16 15 13 11 10 9 6 3 2 4 5 6 7 10 12 11 12 13 13 13 16 12 10 12 15 17 18 18 16 20 18 20 19 19 20 20 20 20 18 18 18
20 18 16 15 13 11 10 7 5 1 2 3 5 7 9 11 11 11 12 13 12 14 10 10 12 14 15 16 18 17 19 18 20 18 18 20 18 19 19 18 18 18 18
20 21 17 15 13 11 8 6 3 1 1 4 7 6 6 8 9 10 11 11 12 11 10 11 14 15 16 17 19 17 20 19 18 18 19 19 19 18 18 18 18 18 19
20 18 16 14 12 10 7 5 2 1 4 6 6 7 7 8 10 8 8 10 12 12 12 13 15 16 17 18 18 19 20 19 19 19 18 19 19 17 17 17 19 21 22
18 18 17 14 12 9 6 4 1 3 6 7 7 8 8 10 10 10 10 11 13 14 14 15 16 18 20 19 19 21 20 18 18 17 18 19 18 17 17 17 18 19 19
18 18 16 13 11 9 7 4 2 5 6 7 9 8 9 12 12 12 12 13 14 15 16 18 19 20 22 20 18 21 19 19 18 18 18 19 20 19 16 18 18 19 19
19 17 16 13 12 10 6 4 4 6 7 8 9 9 10 8 10 11 13 14 15 17 19 20 22 20 23 19 19 21 19 19 19 18 19 21 20 20 17 16 16 19 18
19 17 16 14 12 8 6 6 6 7 7 8 8 9 9 9 11 12 14 16 18 19 19 20 19 25 20 23 22 20 20 20 20 20 22 21 20 21 17 17 17 17 16
19 18 16 14 12 9 8 7 8 10 9 9 10 10 11 12 13 15 16 18 18 18 20 20 22 21 22 21 20 19 20 22 22 22 21 26 25 23 20 18 19 19 20
20 18 17 15 13 11 9 10 10 10 11 11 12 11 12 13 14 17 18 19 21 20 19 20 22 23 23 22 21 21 21 22 19 23 25 24 25 28 24 24 24 22 22
20 19 18 16 14 13 12 12 13 13 14 14 14 13 13 14 16 17 18 20 18 18 23 24 23 23 23 22 21 20 20 20 22 24 23 26 28 24 24 25 21 21 22
Wind_Direction
166 167 150 133 132 135 136 136 135 147 142 144 134 135 130 125 120 105 115 104 88 69 43 33 28 11 357 341 319 301 292 288 285 295 302 306 306 307 309 311 312 314 312
162 163 145 136 140 137 137 136 134 144 144 138 137 131 129 123 113 112 106 93 73 54 32 18 14 360 348 330 317 311 304 302 300 303 309 312 310 311 307 305 308 308 307
150 149 138 131 135 138 139 137 144 141 136 138 134 127 128 116 114 108 88 72 62 43 18 10 3 352 341 331 325 316 311 310 308 307 311 315 311 308 307 310 311 311 309
152 146 139 133 128 133 139 139 137 139 139 133 132 129 120 113 109 85 76 64 45 24 14 10 358 348 337 331 323 317 313 314 317 316 311 309 312 314 312 315 317 316 314
142 134 127 126 133 136 132 134 136 137 137 134 132 124 113 104 85 82 62 50 28 16 6 353 343 338 335 327 321 316 317 315 310 308 304 311 311 317 319 318 309 309 311
131 128 131 129 128 131 137 137 138 137 132 133 127 119 109 94 85 56 52 31 14 359 344 340 337 337 327 317 313 307 306 310 311 314 312 310 312 315 314 310 308 311 311
132 129 130 135 134 136 138 138 136 135 132 128 124 114 106 98 75 34 19 8 348 339 340 337 331 325 330 327 319 314 310 308 305 306 304 307 310 312 309 308 308 306 302
130 133 139 142 138 136 138 136 133 129 128 127 118 118 115 93 52 12 352 340 336 332 329 325 321 321 321 323 321 315 312 310 310 306 301 301 303 307 307 304 304 302 299
137 140 142 145 140 139 136 138 134 133 131 125 124 118 109 90 20 355 350 332 328 324 321 318 313 317 323 321 316 313 312 309 309 301 296 297 302 307 309 312 311 312 305
140 145 148 146 143 138 142 140 139 136 129 128 127 130 112 43 352 344 344 329 323 321 319 314 313 320 322 319 316 313 308 311 312 312 308 308 310 312 311 310 312 307 306
146 143 141 140 141 143 143 141 136 133 131 134 132 129 102 347 331 342 345 332 317 317 313 315 315 319 317 316 312 307 305 309 311 312 314 314 310 315 316 316 312 308 304
143 140 139 144 145 143 139 136 135 135 141 140 153 171 273 337 340 340 336 326 320 312 311 311 312 312 311 308 307 305 309 313 315 320 316 311 315 313 312 310 305 301 297
133 135 139 139 140 142 141 138 140 144 145 163 177 335 330 332 330 331 329 325 319 316 310 308 304 307 306 306 306 316 322 325 325 321 315 311 312 308 308 308 307 304 303
133 138 140 139 140 142 145 148 150 160 163 142 349 339 332 325 324 323 318 316 317 317 312 311 303 304 305 312 322 329 328 325 319 314 311 311 314 315 312 315 313 315 313
143 142 142 145 149 150 152 155 158 152 135 51 336 322 317 310 303 312 318 318 318 315 314 305 306 317 325 332 332 327 324 324 319 317 312 316 313 315 313 316 311 314 313
147 152 158 155 156 157 158 156 146 137 50 1 318 295 289 291 307 314 315 312 309 311 310 307 319 327 330 328 322 319 317 321 316 317 313 313 311 311 311 314 314 313 310
158 157 160 161 161 161 158 148 143 83 25 334 315 299 292 293 301 303 303 302 303 316 313 319 319 320 314 314 314 310 316 313 313 310 311 310 311 312 312 312 314 312 312
164 164 164 165 163 158 155 144 132 152 298 313 328 313 308 309 295 297 302 304 311 319 311 312 312 310 307 306 312 311 310 308 308 309 308 311 312 309 310 311 314 313 308
167 168 167 165 163 160 155 157 173 306 330 311 318 332 312 312 306 298 299 310 313 310 311 307 305 304 301 303 302 308 305 302 305 307 306 310 312 309 308 311 315 318 319
176 175 171 167 166 168 176 183 218 311 309 318 318 314 321 322 321 317 314 311 309 309 308 304 300 304 301 298 302 308 303 301 303 304 306 307 309 308 306 310 315 317 318
175 176 179 174 177 186 191 200 256 292 300 292 296 306 316 318 314 314 312 314 307 304 303 300 296 303 305 295 298 305 298 297 298 300 301 300 304 304 301 305 310 315 315
182 181 185 188 193 196 201 229 270 281 281 291 309 318 322 319 311 308 307 308 305 300 297 294 296 300 303 295 300 299 292 294 297 297 297 300 300 301 296 294 308 314 311
192 192 194 200 203 205 221 249 260 269 284 294 305 313 313 308 307 304 305 305 305 303 303 300 297 306 302 299 300 294 289 292 297 295 294 296 296 296 297 298 301 304 304
202 203 205 209 213 220 237 248 268 282 285 287 296 297 300 302 303 300 301 303 304 303 307 302 303 302 307 309 302 298 296 302 300 300 299 299 291 293 287 288 289 287 291
210 211 214 220 223 231 246 261 273 276 280 287 294 295 299 296 301 301 298 300 304 306 303 307 309 312 313 311 308 307 306 304 304 305 302 297 294 295 287 289 285 286 290
218 221 225 229 233 242 254 266 275 279 281 287 295 295 298 296 298 300 299 302 302 303 307 312 313 317 316 313 312 311 308 301 298 298 296 293 287 290 289 289 283 287 285